Theta_e
307 301 300 300 299 298 299 300 299 298 299 297 296 294 292 293 294 295 295 294 294 294 292 291 289 289 288 287 288 287 287 287 288 286 287 288 291 288 289 290 289 289 289
298 298 298 298 298 299 299 299 300 298 299 298 293 293 293 292 293 294 294 294 293 293 291 289 288 288 287 286 286 286 286 286 287 284 284 282 286 287 288 288 288 286 288
297 297 297 297 298 298 298 298 299 299 297 296 293 293 292 292 291 291 291 292 292 292 291 290 289 287 287 286 285 285 285 284 286 286 283 281 279 282 286 286 286 285 286
299 297 297 296 297 298 299 299 298 297 295 295 294 293 291 291 290 291 291 291 291 291 291 290 289 288 286 285 286 286 285 285 282 284 286 284 283 280 278 283 285 285 285
299 297 297 297 298 297 296 295 296 296 295 294 295 293 291 290 291 291 290 289 290 290 290 289 288 287 286 285 285 284 283 283 281 281 281 282 282 282 279 277 280 282 284
300 299 298 298 296 296 294 293 294 294 294 294 293 293 291 290 290 290 289 289 289 288 288 288 287 286 285 285 284 283 281 280 280 280 281 281 280 279 279 278 278 279 281
299 297 296 296 295 294 293 294 294 293 293 293 292 292 292 291 290 290 289 288 287 286 286 286 285 285 285 285 284 282 280 280 279 279 280 281 281 282 281 280 279 279 280
299 297 296 296 296 295 293 294 294 293 292 293 292 292 292 291 291 291 290 289 287 286 286 285 285 285 285 284 283 282 281 280 280 279 279 280 280 281 281 280 279 276 277
298 297 296 296 295 294 293 294 294 294 293 292 291 291 291 290 291 291 290 288 287 287 286 285 284 283 283 283 282 280 280 280 280 279 279 279 280 281 281 282 281 278 273
297 296 295 295 295 295 294 294 295 293 293 292 291 291 291 291 291 290 289 288 287 287 284 284 283 283 283 283 281 280 280 279 279 279 279 280 280 280 280 279 280 280 277
294 293 293 295 294 295 295 294 294 293 292 292 291 291 290 291 290 289 289 288 287 285 284 284 283 283 283 282 281 280 279 278 278 279 279 279 279 277 278 279 279 278 278
293 292 293 293 293 294 294 294 293 293 292 291 291 290 290 290 289 288 288 287 286 286 284 284 284 284 282 281 280 279 278 278 277 277 278 278 277 276 277 278 277 278 277
292 292 292 292 291 293 294 294 293 292 292 291 290 289 289 288 287 287 287 287 286 286 285 284 283 283 282 281 280 279 278 278 277 277 277 276 276 276 277 277 277 277 277
292 291 291 291 291 292 293 293 293 293 292 291 290 288 288 288 287 287 287 287 287 285 284 284 283 283 281 281 280 279 278 277 277 277 277 276 275 276 276 276 275 276 276
293 292 291 291 291 291 292 293 293 292 291 290 289 288 288 288 287 287 287 286 286 286 284 283 282 281 281 281 279 278 277 276 275 276 276 276 278 278 278 276 276 277 275
296 294 293 293 292 292 292 293 292 291 291 290 289 288 287 287 287 287 287 286 284 284 284 282 281 280 281 282 280 276 276 276 275 274 275 275 276 276 277 278 279 277 273
297 297 294 294 294 294 293 292 292 291 290 289 289 288 288 287 286 286 285 283 283 283 282 281 280 279 280 282 281 279 276 275 274 274 274 274 276 275 274 275 277 275 276
296 296 296 295 295 295 294 292 291 290 290 289 288 288 287 286 285 284 283 281 281 281 280 280 280 279 280 281 280 278 275 275 274 274 273 272 272 273 275 274 269 270 271
297 298 298 295 294 293 293 291 290 289 289 287 287 287 286 285 284 282 281 280 280 280 279 279 278 277 277 280 278 276 274 274 274 275 275 274 272 275 277 272 269 268 269
295 296 296 294 293 292 292 290 288 288 287 286 286 286 285 284 283 282 280 280 279 279 279 277 276 277 275 278 277 276 275 273 274 274 274 275 274 275 276 273 270 267 270
292 292 292 291 291 291 290 287 287 286 286 286 285 285 284 283 282 280 279 278 278 277 276 276 275 274 274 274 276 276 275 274 274 272 272 273 274 274 274 274 270 271 272
289 289 289 288 289 289 288 286 285 286 286 285 284 283 283 282 280 279 278 278 276 274 273 273 273 273 274 275 275 275 276 276 272 271 271 272 273 273 272 272 272 273 268
287 287 287 287 287 288 287 285 284 285 284 283 282 281 281 280 279 277 276 275 275 274 272 271 270 270 273 272 274 274 275 275 272 272 272 271 271 270 269 270 271 268 267
285 286 286 285 286 287 285 284 284 284 282 280 280 279 278 278 278 277 276 273 271 271 271 268 266 263 267 267 269 269 269 273 270 268 268 266 270 265 265 267 268 267 267
284 285 283 282 282 284 283 283 283 282 280 278 278 277 277 275 274 273 273 272 266 271 269 267 265 261 260 264 270 271 270 269 271 263 263 264 263 263 264 265 265 266 266
281 281 281 282 283 283 282 282 282 281 279 276 276 275 273 272 271 271 268 275 272 274 276 275 268 262 271 275 276 275 274 273 272 265 263 260 258 259 262 262 263 264 264
Wind_Speed
11 10 11 12 11 9 10 12 13 11 11 8 7 5 4 3 3 4 6 6 6 6 6 4 4 4 6 4 5 2 5 8 7 2 3 3 1 6 3 4 5 9 10
9 11 13 13 15 15 14 13 13 13 11 9 4 4 5 3 3 4 5 6 7 6 6 5 5 5 5 5 5 4 2 5 7 3 2 5 4 4 3 3 7 9 7
18 17 18 17 15 16 15 14 14 14 11 10 7 6 5 4 3 3 4 4 6 6 5 5 5 5 4 4 4 4 5 4 5 9 3 2 2 6 3 4 5 9 6
18 17 19 19 19 16 14 15 14 15 11 13 9 14 6 7 4 5 5 5 5 5 5 5 5 5 4 5 5 5 5 3 5 3 6 5 1 1 5 4 4 9 6
22 23 25 22 19 17 15 13 14 13 13 12 13 10 10 4 6 6 8 7 5 5 5 5 6 6 4 5 6 7 8 6 4 3 1 3 2 3 1 4 8 7 6
19 18 15 17 17 15 15 14 15 14 14 13 13 14 14 12 10 8 7 5 5 4 5 6 5 5 5 5 6 7 8 5 5 4 4 3 2 2 2 3 6 6 3
14 16 19 20 19 20 17 15 17 14 14 14 13 13 15 15 14 12 8 9 6 4 5 5 5 4 5 6 7 7 6 5 4 4 3 3 3 2 2 4 7 7 4
15 19 22 21 21 21 20 19 19 16 14 14 13 11 14 9 9 10 9 7 5 6 5 5 5 6 6 7 6 4 4 4 5 5 4 3 3 2 2 4 7 7 3
14 17 14 17 17 18 19 19 18 16 14 14 12 12 11 12 11 11 9 7 8 7 7 6 6 6 6 7 6 5 4 4 4 5 4 4 2 2 2 3 4 5 7
7 9 14 16 15 17 17 17 18 18 16 14 12 11 11 11 11 11 10 11 9 9 8 7 6 6 6 7 6 5 4 5 3 4 5 3 2 2 3 3 3 3 7
7 2 5 9 12 15 16 16 16 17 15 15 13 13 11 11 12 11 11 10 10 10 9 8 8 7 7 6 6 6 5 5 5 5 4 4 3 3 3 4 3 5 6
3 4 6 9 12 14 15 17 16 16 16 15 13 14 13 12 12 11 12 12 12 9 9 8 8 7 7 6 6 6 4 5 7 4 3 5 5 5 5 4 7 6 8
2 5 6 9 10 13 15 16 16 17 17 16 16 15 15 15 14 12 12 11 11 9 8 8 8 8 7 7 6 5 5 5 3 3 4 5 6 6 5 5 6 7 8
7 6 7 10 11 13 14 14 14 14 15 14 13 14 14 14 13 12 12 11 11 11 9 8 8 8 7 6 6 6 6 4 3 3 4 4 6 6 4 7 7 8 9
7 11 13 13 14 14 14 14 14 14 16 16 15 14 11 12 13 11 11 10 10 10 9 9 8 8 7 5 6 5 4 2 3 3 4 5 6 10 10 5 6 9 8
9 12 15 15 17 18 17 15 16 17 16 14 14 11 10 12 12 11 10 9 8 8 10 9 10 9 6 12 11 7 4 2 2 2 3 5 5 8 13 14 15 12 8
13 14 13 17 17 19 18 18 15 13 15 15 15 14 13 12 11 11 9 8 8 8 10 9 10 8 6 12 9 8 3 1 1 1 3 5 5 8 6 11 9 8 15
12 11 7 12 15 14 15 15 17 16 14 13 16 15 14 12 11 9 9 8 7 9 9 9 9 8 6 8 8 6 2 2 2 2 4 3 4 6 10 1 3 4 6
11 11 7 8 12 16 16 17 16 16 16 17 16 15 14 13 11 11 10 8 8 7 8 9 9 8 5 7 6 4 2 1 2 2 3 2 3 13 17 4 4 5 7
11 11 4 10 14 14 17 17 15 16 15 15 16 15 13 12 11 11 10 8 8 9 8 9 7 9 4 6 4 2 2 1 1 2 5 8 10 16 16 8 5 8 7
8 4 7 9 11 14 16 16 15 13 15 15 14 13 12 11 11 11 10 10 9 9 8 8 6 6 5 3 2 0 1 1 1 0 3 5 14 16 16 15 7 11 9
4 7 7 10 11 13 15 15 14 15 15 15 13 12 11 9 9 12 9 10 10 9 8 7 5 4 3 4 1 2 3 4 3 2 1 3 14 15 16 11 17 18 8
5 6 9 11 10 11 13 15 14 14 14 14 13 11 11 9 10 11 10 9 8 7 6 5 4 3 2 1 3 5 4 5 3 2 4 9 11 13 8 14 16 11 6
7 8 10 10 10 10 13 13 14 14 14 14 12 11 10 10 8 6 6 7 6 5 5 4 4 3 2 3 3 1 1 2 4 1 2 2 4 4 5 6 8 6 8
6 7 9 10 12 14 14 13 13 15 14 12 11 9 8 9 7 5 5 5 2 6 6 5 5 4 3 4 4 4 2 2 4 2 1 2 2 4 5 6 7 7 8
10 9 9 9 10 11 12 12 12 12 13 11 8 7 7 6 6 6 4 6 8 8 11 13 9 4 7 6 5 5 4 2 3 1 1 2 2 3 5 6 7 7 9
Wind_Direction
193 173 163 160 160 161 160 159 154 157 144 140 139 128 132 125 103 102 110 101 96 94 95 94 88 78 73 64 46 65 44 26 359 29 20 30 198 45 71 65 62 39 23
175 171 173 176 179 171 173 169 166 160 159 152 129 126 137 125 120 115 104 110 109 111 106 110 100 94 84 60 49 42 46 46 24 47 15 10 337 5 7 53 39 34 14
189 181 182 183 179 182 176 171 169 166 161 147 125 108 91 85 95 102 98 96 103 104 113 113 109 95 87 81 61 53 58 72 47 45 97 64 351 330 315 18 40 26 8
198 185 183 186 185 182 176 176 169 169 164 156 144 153 148 152 157 148 137 120 106 107 106 100 102 96 81 69 67 62 61 67 50 46 33 62 77 338 321 326 18 7 16
195 192 191 184 180 172 175 173 169 171 163 162 159 153 144 135 132 127 127 121 113 110 106 106 100 90 85 81 81 73 68 61 73 61 36 36 19 79 289 298 332 348 349
205 202 187 175 178 171 173 169 167 171 168 165 162 159 150 143 142 147 140 140 129 118 111 102 100 97 93 96 91 81 72 71 67 64 62 64 37 345 1 305 318 293 329
197 192 181 182 179 177 172 169 170 170 169 166 166 158 151 154 155 155 154 152 140 138 127 121 106 98 97 101 94 84 71 58 62 48 51 50 43 353 331 301 318 317 320
198 196 193 185 184 177 175 172 171 166 168 166 163 153 152 154 156 158 154 148 145 145 133 121 116 104 102 98 91 82 79 67 69 55 45 51 28 1 324 314 323 329 310
213 205 189 188 182 178 176 169 167 164 165 163 154 155 154 153 156 150 149 144 143 144 135 131 125 114 109 113 103 90 79 70 63 56 44 46 350 344 325 315 6 343 321
252 192 186 180 177 173 169 170 171 166 162 158 158 156 154 149 143 144 148 148 148 140 136 139 132 122 115 120 108 86 74 73 50 52 43 31 333 360 350 341 344 310 303
337 85 149 166 167 172 172 169 167 165 162 156 158 153 154 146 144 149 148 150 146 150 147 150 140 131 127 126 115 100 74 66 55 34 14 22 14 348 347 348 338 315 301
328 127 150 158 172 177 174 173 169 167 164 159 158 155 150 153 151 150 152 154 153 156 154 148 136 134 126 123 111 98 84 64 49 20 356 20 356 354 346 352 332 316 319
209 155 155 171 174 180 180 179 177 173 165 162 163 159 160 159 156 157 153 154 152 153 150 142 141 133 134 127 120 111 89 68 53 13 360 9 353 343 340 346 346 325 317
193 190 186 188 182 184 186 180 175 171 167 164 161 164 167 158 150 151 151 152 152 157 155 151 139 138 137 135 128 111 92 78 60 17 15 2 338 310 351 351 328 321 305
204 204 206 194 186 186 185 182 179 169 164 163 167 165 168 147 143 147 148 145 153 163 151 138 127 132 132 143 117 103 92 80 76 359 7 3 321 2 351 336 316 318 346
281 223 218 204 197 190 188 183 177 174 167 165 157 150 153 142 145 142 141 144 150 142 143 137 141 142 140 149 135 127 111 81 66 357 336 337 3 345 339 325 329 345 331
279 275 209 208 202 196 188 183 174 165 165 159 151 148 156 144 134 132 138 154 141 146 141 145 143 135 141 145 160 141 128 149 222 317 307 334 348 336 303 303 328 325 331
270 256 238 214 200 188 181 164 160 162 161 157 146 145 144 133 121 130 159 130 145 151 142 140 136 131 132 143 144 144 143 158 211 244 265 280 306 309 311 288 297 293 294
269 262 239 180 172 172 163 158 159 157 155 152 142 139 131 132 145 160 149 139 133 139 138 135 127 118 108 143 127 155 142 141 2 355 309 327 309 319 337 352 305 294 288
277 275 202 150 153 160 152 149 158 152 151 142 136 130 136 148 158 156 138 136 143 140 132 129 118 130 119 135 130 147 150 248 351 12 354 350 336 334 334 339 341 316 309
316 348 113 131 137 142 143 140 140 144 134 129 126 132 136 150 165 137 133 138 133 125 128 129 116 121 133 126 136 43 96 270 131 74 5 337 329 339 335 336 330 302 345
1 46 86 105 124 137 129 132 133 135 134 130 133 136 140 155 144 134 134 131 129 126 126 133 132 130 134 148 244 26 3 15 123 100 310 300 344 345 339 336 322 331 344
74 76 101 105 106 119 134 128 132 132 126 125 125 131 142 132 134 135 134 126 127 130 143 144 141 151 162 235 303 358 351 100 115 92 353 1 359 356 342 333 331 342 312
104 113 113 111 107 111 111 122 126 123 121 119 124 138 134 127 124 125 125 125 124 129 142 146 155 175 230 267 292 318 137 101 131 95 11 347 356 331 308 321 327 324 317
119 117 115 120 122 126 132 133 130 126 123 125 135 131 125 121 117 98 126 128 97 159 157 170 163 154 229 244 239 157 190 184 181 157 19 354 354 335 330 327 326 322 317
119 114 124 132 131 130 121 119 125 129 130 129 130 127 123 118 120 115 80 136 151 177 172 170 167 226 202 217 269 336 141 341 14 68 332 313 312 306 316 319 318 317 312